Date String (YYYY-MM-DD hh:mm:ss) UTC,Instrument flags,Ambient pressure (hPa),Sample flow (lpm),Bypass flow (lpm),Sample temperature (°C),Ambient temperature (°C),ASC tube jacket temperature (°C),LED temperature (°C),Box temperature (°C),Sample RH (%),Mass concentration (μg/m³),Mass concentration (μg/m³)
DateTimeUTC,F1_M11,P_M11,Q1_M11,Q2_M11,T1_M11,T2_M11,T3_M11,T4_M11,T5_M11,U1_M11,X2_M11,X0_M11
2021-08-12 05:00:00,FlowAlarm;OPCInstrumentWarning,0828.2,5.01,0.00,29.3,26.5,00.0,38.5,30.9,16.5,0029.07,0042.52
2021-08-12 05:01:00,FlowAlarm;OPCInstrumentWarning,0828.2,5.00,0.00,29.2,26.8,00.0,38.4,31.0,16.6,0029.11,0043.71
2021-08-12 05:02:00,FlowAlarm;OPCInstrumentWarning,0828.3,5.00,0.00,29.2,27.2,00.0,38.4,31.1,16.8,0029.09,0043.34
2021-08-12 05:03:00,FlowAlarm;OPCInstrumentWarning,0828.2,4.99,0.00,29.2,27.6,00.0,38.4,31.1,16.6,0029.05,0043.31
2021-08-12 05:04:00,FlowAlarm;OPCInstrumentWarning,0828.2,5.00,0.00,29.2,27.8,00.0,38.4,31.2,16.5,0029.03,0043.34
2021-08-12 05:05:00,FlowAlarm;OPCInstrumentWarning,0828.3,4.99,0.00,29.3,28.1,00.0,38.4,31.2,16.5,0029.00,0042.36
2021-08-12 05:06:00,FlowAlarm;OPCInstrumentWarning,0828.3,5.01,0.00,29.3,28.2,00.0,38.4,31.3,16.4,0028.96,0042.26
2021-08-12 05:07:00,FlowAlarm;OPCInstrumentWarning,0828.3,4.99,0.00,29.3,28.4,00.0,38.5,31.3,16.5,0028.96,0042.72
2021-08-12 05:08:00,FlowAlarm;OPCInstrumentWarning,0828.3,4.99,0.00,29.4,28.5,00.0,38.5,31.4,16.5,0028.97,0043.07
2021-08-12 05:09:00,FlowAlarm;OPCInstrumentWarning,0828.3,5.00,0.00,29.4,28.6,00.0,38.5,31.4,16.5,0029.01,0042.54
2021-08-12 05:10:00,FlowAlarm;OPCInstrumentWarning,0828.3,4.99,0.00,29.5,28.7,00.0,38.5,31.5,16.4,0028.96,0042.33
2021-08-12 05:11:00,FlowAlarm;OPCInstrumentWarning,0828.3,4.99,0.00,29.5,28.8,00.0,38.6,31.5,16.4,0029.00,0042.41
2021-08-12 05:12:00,FlowAlarm;OPCInstrumentWarning,0828.3,5.01,0.00,29.6,28.6,00.0,38.6,31.5,16.4,0028.99,0041.20
2021-08-12 05:13:00,FlowAlarm;OPCInstrumentWarning,0828.3,5.01,0.00,29.5,26.9,00.0,38.6,31.0,16.4,0028.99,0041.41
2021-08-12 05:14:00,FlowAlarm;OPCInstrumentWarning,0828.3,4.99,0.00,29.3,25.5,00.0,38.5,30.6,16.6,0029.02,0041.28
2021-08-12 05:15:00,FlowAlarm;OPCInstrumentWarning,0828.3,5.00,0.00,29.2,25.5,00.0,38.5,30.6,16.7,0029.10,0041.50
2021-08-12 05:16:00,FlowAlarm;OPCInstrumentWarning,0828.2,5.01,0.00,29.0,26.0,00.0,38.4,30.7,16.7,0029.15,0041.91
2021-08-12 05:17:00,FlowAlarm;OPCInstrumentWarning,0828.3,4.99,0.00,29.0,26.4,00.0,38.4,30.8,16.7,0029.21,0041.80
2021-08-12 05:18:00,FlowAlarm;OPCInstrumentWarning,0828.2,5.01,0.00,29.0,26.9,00.0,38.4,30.8,16.7,0029.20,0041.28
2021-08-12 05:19:00,FlowAlarm;OPCInstrumentWarning,0828.3,4.99,0.00,29.0,27.2,00.0,38.3,30.9,16.7,0029.14,0041.79
2021-08-12 05:20:00,FlowAlarm;OPCInstrumentWarning,0828.2,5.00,0.00,29.0,27.5,00.0,38.3,31.0,16.7,0029.04,0042.35
2021-08-12 05:21:00,FlowAlarm;OPCInstrumentWarning,0828.3,5.02,0.00,29.1,27.8,00.0,38.3,31.0,16.8,0028.99,0042.19
2021-08-12 05:22:00,FlowAlarm;OPCInstrumentWarning,0828.3,4.98,0.00,29.1,28.0,00.0,38.4,31.1,16.7,0029.00,0042.42
2021-08-12 05:23:00,FlowAlarm;OPCInstrumentWarning,0828.3,5.00,0.00,29.1,28.1,00.0,38.4,31.1,16.7,0029.02,0043.26
2021-08-12 05:24:00,FlowAlarm;OPCInstrumentWarning,0828.3,4.99,0.00,29.2,28.2,00.0,38.4,31.2,16.7,0029.01,0043.57
2021-08-12 05:25:00,FlowAlarm;OPCInstrumentWarning,0828.3,5.01,0.00,29.2,28.3,00.0,38.4,31.2,16.6,0028.93,0043.18
2021-08-12 05:26:00,FlowAlarm;OPCInstrumentWarning,0828.3,5.01,0.00,29.3,28.4,00.0,38.4,31.3,16.6,0028.89,0043.05
2021-08-12 05:27:00,FlowAlarm;OPCInstrumentWarning,0828.3,4.97,0.00,29.3,28.5,00.0,38.4,31.4,16.5,0028.87,0042.55
2021-08-12 05:28:00,FlowAlarm;OPCInstrumentWarning,0828.3,5.02,0.00,29.4,28.6,00.0,38.5,31.4,16.5,0028.81,0042.76
2021-08-12 05:29:00,FlowAlarm;OPCInstrumentWarning,0828.2,5.00,0.00,29.4,28.7,00.0,38.5,31.5,16.5,0028.81,0043.65
2021-08-12 05:30:00,FlowAlarm;OPCInstrumentWarning,0828.2,4.99,0.00,29.5,28.7,00.0,38.5,31.5,16.3,0028.89,0043.14
2021-08-12 05:31:00,FlowAlarm;OPCInstrumentWarning,0828.3,5.00,0.00,29.5,28.8,00.0,38.6,31.5,16.2,0028.93,0042.36
2021-08-12 05:32:00,FlowAlarm;OPCInstrumentWarning,0828.2,4.99,0.00,29.6,28.3,00.0,38.6,31.4,16.2,0028.99,0042.33
2021-08-12 05:33:00,FlowAlarm;OPCInstrumentWarning,0828.3,5.00,0.00,29.4,26.3,00.0,38.5,30.8,16.2,0028.98,0042.23
2021-08-12 05:34:00,FlowAlarm;OPCInstrumentWarning,0828.3,4.99,0.00,29.2,25.4,00.0,38.5,30.6,16.4,0028.96,0041.20
2021-08-12 05:35:00,FlowAlarm;OPCInstrumentWarning,0828.3,5.02,0.00,29.1,25.6,00.0,38.5,30.6,16.7,0028.99,0041.02
2021-08-12 05:36:00,FlowAlarm;OPCInstrumentWarning,0828.3,4.99,0.00,29.0,26.1,00.0,38.4,30.7,17.0,0029.03,0041.46
2021-08-12 05:37:00,FlowAlarm;OPCInstrumentWarning,0828.3,5.01,0.00,29.0,26.5,00.0,38.4,30.8,16.9,0029.06,0042.46
2021-08-12 05:38:00,FlowAlarm;OPCInstrumentWarning,0828.3,4.99,0.00,29.0,27.0,00.0,38.3,30.8,16.7,0029.07,0042.66
2021-08-12 05:39:00,FlowAlarm;OPCInstrumentWarning,0828.4,5.00,0.00,29.0,27.3,00.0,38.3,30.9,17.0,0029.08,0042.62
2021-08-12 05:40:00,FlowAlarm;OPCInstrumentWarning,0828.3,5.01,0.00,29.0,27.6,00.0,38.3,31.0,17.1,0029.08,0041.90
2021-08-12 05:41:00,FlowAlarm;OPCInstrumentWarning,0828.3,4.99,0.00,29.1,27.8,00.0,38.3,31.1,16.9,0029.08,0043.05
2021-08-12 05:42:00,FlowAlarm;OPCInstrumentWarning,0828.5,5.00,0.00,29.1,28.0,00.0,38.3,31.1,16.7,0029.03,0042.83
2021-08-12 05:43:00,FlowAlarm;OPCInstrumentWarning,0828.4,4.99,0.00,29.1,28.2,00.0,38.3,31.2,16.6,0029.04,0042.30
2021-08-12 05:44:00,FlowAlarm;OPCInstrumentWarning,0828.4,5.01,0.00,29.2,28.3,00.0,38.3,31.2,16.6,0029.14,0042.89
2021-08-12 05:45:00,FlowAlarm;OPCInstrumentWarning,0828.4,4.99,0.00,29.2,28.4,00.0,38.4,31.3,16.3,0029.19,0043.23
2021-08-12 05:46:00,FlowAlarm;OPCInstrumentWarning,0828.3,5.02,0.00,29.3,28.5,00.0,38.4,31.3,16.3,0029.19,0042.97
2021-08-12 05:47:00,FlowAlarm;OPCInstrumentWarning,0828.3,4.99,0.00,29.3,28.5,00.0,38.4,31.3,16.2,0029.22,0042.88
2021-08-12 05:48:00,FlowAlarm;OPCInstrumentWarning,0828.3,5.00,0.00,29.4,28.6,00.0,38.4,31.4,16.2,0029.26,0042.76
2021-08-12 05:49:00,FlowAlarm;OPCInstrumentWarning,0828.3,4.99,0.00,29.4,28.7,00.0,38.5,31.4,16.1,0029.25,0042.40
2021-08-12 05:50:00,FlowAlarm;OPCInstrumentWarning,0828.3,5.01,0.00,29.5,28.7,00.0,38.5,31.5,16.1,0029.27,0043.75
2021-08-12 05:51:00,FlowAlarm;OPCInstrumentWarning,0828.3,5.01,0.00,29.5,28.8,00.0,38.5,31.5,15.9,0029.32,0043.65
2021-08-12 05:52:00,FlowAlarm;OPCInstrumentWarning,0828.3,5.00,0.00,29.6,28.8,00.0,38.6,31.6,15.9,0029.37,0043.89
2021-08-12 05:53:00,FlowAlarm;OPCInstrumentWarning,0828.4,4.99,0.00,29.6,28.9,00.0,38.6,31.6,16.0,0029.41,0044.59
2021-08-12 05:54:00,FlowAlarm;OPCInstrumentWarning,0828.3,5.01,0.00,29.6,28.2,00.0,38.6,31.4,16.2,0029.48,0045.18
2021-08-12 05:55:00,FlowAlarm;OPCInstrumentWarning,0828.3,5.00,0.00,29.5,26.2,00.0,38.6,30.8,16.1,0029.43,0044.96
2021-08-12 05:56:00,FlowAlarm;OPCInstrumentWarning,0828.3,4.99,0.00,29.3,25.4,00.0,38.6,30.6,16.1,0029.40,0045.09
2021-08-12 05:57:00,FlowAlarm;OPCInstrumentWarning,0828.2,5.00,0.00,29.2,25.7,00.0,38.5,30.7,16.2,0029.40,0045.40
2021-08-12 05:58:00,FlowAlarm;OPCInstrumentWarning,0828.2,5.00,0.00,29.1,26.2,00.0,38.5,30.8,16.3,0029.42,0045.02
2021-08-12 05:59:00,FlowAlarm;OPCInstrumentWarning,0828.4,4.99,0.00,29.1,26.7,00.0,38.4,30.9,16.2,0029.41,0045.12
